• MPC Preparation (Info)

  • MPEC 2010-K32 : 2010 KA8

    The following Minor Planet Electronic Circular may be linked-to from your own Web pages, but must not otherwise be redistributed electronically.

    A form allowing access to any MPEC is at the bottom of this page.


    Read MPEC 2010-K31 Read MPEC 2010-K33


    M.P.E.C. 2010-K32                                Issued 2010 May 21, 01:50 UT
    
         The Minor Planet Electronic Circulars contain information on unusual
             minor planets and routine data on comets.  They are published
       on behalf of Commission 20 of the International Astronomical Union by the
              Minor Planet Center, Smithsonian Astrophysical Observatory,
                              Cambridge, MA 02138, U.S.A.
    
                 Prepared using the Tamkin Foundation Computer Network
    
                                  MPC@CFA.HARVARD.EDU
           URL https://www.minorplanetcenter.org/iau/mpc.html  ISSN 1523-6714
    
                                       2010 KA8
    
    Observations:
         K10K08A* C2010 05 19.32677 15 34 25.54 -30 00 55.1          18.5 R EK032926
         K10K08A  C2010 05 19.33436 15 34 25.65 -30 00 18.8          18.5 R EK032926
         K10K08A  C2010 05 19.34273 15 34 25.79 -29 59 38.4          18.7 R EK032926
         K10K08A KC2010 05 19.96191 15 34 51.57 -29 11 07.4          18.0 C EK032I20
         K10K08A KC2010 05 19.96941 15 34 51.81 -29 10 34.3          17.6 C EK032I20
         K10K08A KC2010 05 19.98490 15 34 52.21 -29 09 26.2          17.8 C EK032I20
         K10K08A KC2010 05 20.19897815 34 56.98 -28 54 31.1                 EK032H21
         K10K08A KC2010 05 20.20435615 34 57.25 -28 54 04.2          18.4 V EK032H21
         K10K08A  C2010 05 20.20493015 34 57.19 -28 54 02.6          18.0 V EK032H21
         K10K08A KC2010 05 20.20935915 34 57.33 -28 53 42.9          18.2 V EK032H21
         K10K08A  C2010 05 20.20945315 34 57.24 -28 53 42.4                 EK032H21
         K10K08A  C2010 05 20.27058 15 34 59.16 -28 49 09.0          18.0 C EK032H10
         K10K08A  C2010 05 20.27435 15 34 59.16 -28 48 53.1          18.8 C EK032H10
         K10K08A  C2010 05 20.31141 15 34 59.99 -28 46 07.8          18.8 R EK032926
         K10K08A  C2010 05 20.31191 15 34 59.96 -28 46 05.5          18.3 R EK032854
         K10K08A KC2010 05 20.31318 15 34 59.72 -28 46 00.2          18.4 C EK032H10
         K10K08A  C2010 05 20.31330 15 35 00.00 -28 45 59.2          18.8 R EK032926
         K10K08A  C2010 05 20.31520 15 35 00.04 -28 45 51.1          18.8 R EK032926
         K10K08A KC2010 05 20.31655 15 34 59.75 -28 45 45.5          18.3 C EK032H10
         K10K08A  C2010 05 20.31672 15 35 00.07 -28 45 44.7          18.4 R EK032854
         K10K08A KC2010 05 20.31994 15 34 59.79 -28 45 30.4          18.6 C EK032H10
         K10K08A  C2010 05 20.32152 15 35 00.09 -28 45 23.5          18.3 R EK032854
         K10K08A KC2010 05 20.32387 15 34 59.85 -28 45 13.1          18.4 C EK032H10
         K10K08A  C2010 05 20.35417 15 35 00.53 -28 42 58.0          18.8 R EK032926
         K10K08A  C2010 05 20.35605 15 35 00.59 -28 42 49.4          18.8 R EK032926
         K10K08A  C2010 05 20.35795 15 35 00.61 -28 42 40.6          18.9 R EK032926
         K10K08A KC2010 05 20.96140 15 35 21.60 -27 59 14.3          17.8 R EK032B04
         K10K08A KC2010 05 20.97217 15 35 21.77 -27 58 28.5          17.8 R EK032B04
         K10K08A KC2010 05 20.98303 15 35 21.95 -27 57 42.5          17.9 R EK032B04
    
    Observer details:
    854 Sabino Canyon Observatory, Tucson.  Observer J. E. McGaha.  0.36-m f/10.0
        Schmidt-Cassegrain + CCD.
    926 Tenagra II Observatory.  Observers M. Schwartz, P. R. Holvorcem.  Measurer
        P. R. Holvorcem.  0.41-m f/3.75 astrograph + CCD, 0.81-m f/7
        Ritchey-Chretien + CCD.
    B04 OAVdA, Saint-Barthelemy.  Observer A. Carbognani.  0.81-m f/7.9 reflector
        + CCD.
    H10 Tzec Maun Observatory, Mayhill.  Observers D. Chestnov, A. Novichonok,
        L. Elenin.  0.36-m f/3.8 Maksutov-Newtonian + CCD.
    H21 Astronomical Research Observatory, Westfield.  Observer R. Holmes.
        Measurers S. Foglia, H. Devore.  0.61-m f/4.5 astrograph + CCD.
    I20 Rio Cuarto.  Observer F. D. Mazzone.  0.20-m f/4 Schmidt-Newtonian + CCD.
    
    Orbital elements:
    2010 KA8                                                 Earth MOID = 0.0972 AU
    Epoch 2010 July 23.0 TT = JDT 2455400.5                 MPC
    M  62.27471              (2000.0)            P               Q
    n   0.47554024     Peri.  277.10167     -0.94502438     -0.28398429
    a   1.6255907      Node   246.50685     +0.32297231     -0.88817288
    e   0.4358892      Incl.   10.18165     -0.05116443     -0.36125041
    P   2.07           H   21.6           G   0.15           U   8
    Residuals in seconds of arc
    100519 926  0.1-  0.6-    100520 H21  0.6-  0.6+    100520 H10  0.0   0.2-
    100519 926  0.2-  0.1-    100520 H10  0.4+  0.2+    100520 854  0.1-  0.2-
    100519 926  0.0   0.7+    100520 H10  0.3-  0.6-    100520 H10  0.1+  0.4-
    100519 I20  0.0   0.2-    100520 926  0.3+  0.0     100520 926  0.2-  0.3-
    100519 I20  0.4+  0.0     100520 854  0.2-  0.4+    100520 926  0.3+  0.1-
    100519 I20  0.2+  0.2+    100520 H10  0.3+  0.1+    100520 926  0.2+  0.2+
    100520 H21  1.9-  1.7-    100520 926  0.1+  0.2+    100520 B04  0.2-  0.1+
    100520 H21  0.5+  1.3+    100520 926  0.3+  0.1-    100520 B04  0.2-  0.1+
    100520 H21  0.4-  0.4+    100520 H10  0.1+  0.2-    100520 B04  0.0   0.1-
    100520 H21  0.6+  0.5+    100520 854  0.5+  0.1-
    
    Ephemeris:
    2010 KA8                 a,e,i = 1.63, 0.44, 10                  q = 0.9170
    Date    TT    R. A. (2000) Decl.     Delta      r     Elong.  Phase     V
    2010 05 14    15 30.31   -38 10.7    0.142    1.146   160.3    17.3    18.6
    2010 05 24    15 36.85   -24 42.1    0.197    1.208   172.9     5.9    19.0
    2010 06 03    15 40.95   -17 22.1    0.266    1.273   164.7    12.2    20.0
    2010 06 13    15 45.46   -13 26.2    0.348    1.338   154.7    18.9    20.9
    2010 06 23    15 51.43   -11 27.3    0.441    1.403   145.9    23.9    21.7
    2010 07 03    15 59.08   -10 37.3    0.544    1.467   138.1    27.6    22.3
    2010 07 13    16 08.33   -10 28.7    0.658    1.530   130.9    30.1    22.9
    2010 07 23    16 19.10   -10 44.7    0.780    1.591   124.2    31.9    23.4
    
    Carl W. Hergenrother         (C) Copyright 2010 MPC           M.P.E.C. 2010-K32
    

    Read MPEC 2010-K31 Read MPEC 2010-K33


    MPEC number:

    Enter an MPEC number in one of the following forms:

    • 1997-B01 (the full form)
    • J97B01 (the packed version of the full form)
    • B01 (the abbreviated form)